sat.trackr.live / text

‹ back to catalog

STARLINK-37462

NORAD 68822 · 2026-089W

PAYLOAD ACTIVE UNKNOWN

§ Identity

Operator
Country
US
Launch date
2026-04-23
Launch site
AFWTR
Launch vehicle
Mass (kg)
RCS (m²)

Purposes: comms

External: N2YO · Heavens-Above · Gunter

§ Orbital elements

Epoch: 2026-09-19T23:47:23.767584Z

Period
93.91 min
Inclination
97.2861°
Eccentricity
0.0002287
Mean motion
15.33453744 rev/d
Perigee alt
464.0 km
Apogee alt
467.1 km
Semi-major
6,843.7 km
B*
5.4816e-4
RAAN
108.8021°
Arg perigee
94.2914°
Mean anomaly
265.8590°
Rev number
2,318

§ Raw data

STARLINK-374621 68822U 26089W   26262.99124731  .00017669  00000+0  54816-3 0  99902 68822  97.2861 108.8021 0002287  94.2914 265.8590 15.33453744 23187

JSON: /api/v1/satellites/68822 · /tle

For live sub-satellite position, see the globe view (requires WebGL).

§ Visibility from observer

Set your observer location to see the next 7 days of passes ≥ 10°. The values pass through the URL so the page stays shareable.

No JS? Fill the form by hand. The geolocation button needs JavaScript.